Location: Mountain Grove
(34.0887°N, 86.6172°W)
Time: 20:39:19
(UTC+00:00)

Cosmos 1328 - Pass Details

Date: 14 July 2020
Orbit: 538 x 545 km, 82.5° (Epoch: 08 August)

Event Time Altitude Azimuth Distance (km) Brightness Sun altitude
Rises 01:24:42 0° 175° (S) 2,686 7.0 -5.5°
Reaches altitude 10° 01:26:53 10° 170° (S) 1,797 6.1 -5.8°
Maximum altitude 01:30:43 52° 93° (E) 674 4.0 -6.5°
Drops below altitude 10° 01:34:35 10° 17° (NNE) 1,805 6.7 -7.2°
Sets 01:36:46 0° 13° (NNE) 2,700 7.6 -7.6°
